WZZ194 LATI-LGSA

Flight info

Callsign WZZ194
Flight time 1h 0m
Altitude 33000
Route ELBAK DCT DIMIS UL604 TRL UJ65 SOKRI
Aircraft A20N/M-SDE2E3FGHIRWXY/LB1

Departure

Time 2026-05-08 18:08
Airport Tirana International Airport Mother Teresa (LATI)

Arrival

Time 2026-05-08 19:09
Airport Chania International Airport (LGSA)
Time Latitude Longitude Altitude Speed Heading
2026-05-08 16:59 41.42172 19.71488 115 ft 0 kts 263°
2026-05-08 17:59 41.42172 19.71489 114 ft 0 kts 263°
2026-05-08 18:00 41.42173 19.71506 114 ft 2 kts 263°
2026-05-08 18:00 41.42166 19.71544 114 ft 2 kts 315°
2026-05-08 18:00 41.42154 19.71555 114 ft 2 kts 344°
2026-05-08 18:01 41.42147 19.71557 114 ft 1 kts 358°
2026-05-08 18:01 41.42143 19.71558 114 ft 0 kts 354°
2026-05-08 18:03 41.42150 19.71557 115 ft 2 kts 354°
2026-05-08 18:03 41.42169 19.71554 115 ft 4 kts 353°
2026-05-08 18:03 41.42207 19.71548 114 ft 7 kts 354°
2026-05-08 18:04 41.42265 19.71541 113 ft 10 kts 354°
2026-05-08 18:04 41.42333 19.71532 112 ft 10 kts 354°
2026-05-08 18:04 41.42371 19.71527 112 ft 3 kts 355°
2026-05-08 18:04 41.42426 19.71521 112 ft 13 kts 355°
2026-05-08 18:05 41.42519 19.71510 112 ft 14 kts 354°
2026-05-08 18:05 41.42606 19.71499 112 ft 5 kts 358°
2026-05-08 18:05 41.42639 19.71519 112 ft 6 kts 44°
2026-05-08 18:05 41.42661 19.71570 112 ft 7 kts 77°
2026-05-08 18:06 41.42669 19.71639 112 ft 8 kts 81°
2026-05-08 18:06 41.42676 19.71718 111 ft 9 kts 84°
2026-05-08 18:06 41.42682 19.71805 111 ft 10 kts 85°
2026-05-08 18:06 41.42663 19.71886 112 ft 9 kts 149°
2026-05-08 18:07 41.42599 19.71906 112 ft 8 kts 173°
2026-05-08 18:07 41.42590 19.71908 112 ft 0 kts 172°
2026-05-08 18:07 41.42385 19.71937 113 ft 67 kts 174°
2026-05-08 18:08 41.41691 19.72029 121 ft 132 kts 174°
2026-05-08 18:08 41.40602 19.72180 193 ft 177 kts 174°
2026-05-08 18:08 41.39324 19.72347 612 ft 192 kts 173°
2026-05-08 18:08 41.37970 19.72526 1282 ft 198 kts 173°
2026-05-08 18:09 41.36662 19.72690 2177 ft 189 kts 172°
2026-05-08 18:09 41.35305 19.72868 2630 ft 206 kts 172°
2026-05-08 18:09 41.33817 19.73071 3084 ft 225 kts 172°
2026-05-08 18:09 41.32208 19.73289 3584 ft 242 kts 173°
2026-05-08 18:10 41.30482 19.73523 4150 ft 257 kts 174°
2026-05-08 18:10 41.28698 19.73761 4960 ft 261 kts 175°
2026-05-08 18:10 41.26898 19.74001 5690 ft 263 kts 174°
2026-05-08 18:10 41.25122 19.74560 6436 ft 267 kts 161°
2026-05-08 18:11 41.23451 19.75715 7181 ft 275 kts 151°
2026-05-08 18:11 41.21846 19.77107 7931 ft 279 kts 149°
2026-05-08 18:11 41.20233 19.78541 8679 ft 283 kts 150°
2026-05-08 18:11 41.18600 19.79996 9412 ft 286 kts 150°
2026-05-08 18:12 41.16949 19.81455 10149 ft 289 kts 150°
2026-05-08 18:12 41.15258 19.82941 10722 ft 297 kts 150°
2026-05-08 18:12 41.13521 19.84464 11296 ft 305 kts 150°
2026-05-08 18:12 41.11728 19.86033 11856 ft 312 kts 150°
2026-05-08 18:13 41.09909 19.87628 12421 ft 319 kts 150°
2026-05-08 18:13 41.08046 19.89260 12992 ft 325 kts 150°
2026-05-08 18:13 41.06145 19.90921 13558 ft 332 kts 150°
2026-05-08 18:13 41.04211 19.92611 14122 ft 337 kts 150°
2026-05-08 18:14 41.02237 19.94333 14685 ft 343 kts 150°
2026-05-08 18:14 41.00233 19.96082 15248 ft 348 kts 150°
2026-05-08 18:14 40.98188 19.97865 15813 ft 353 kts 150°
2026-05-08 18:14 40.96137 19.99654 16370 ft 357 kts 151°
2026-05-08 18:15 40.94054 20.01466 16931 ft 361 kts 150°
2026-05-08 18:15 40.91956 20.03290 17485 ft 364 kts 151°
2026-05-08 18:15 40.89841 20.05128 18040 ft 367 kts 151°
2026-05-08 18:15 40.87660 20.07010 18618 ft 369 kts 152°
2026-05-08 18:16 40.85450 20.08718 19167 ft 369 kts 156°
2026-05-08 18:16 40.83148 20.10268 19734 ft 370 kts 158°
2026-05-08 18:16 40.80851 20.11772 20300 ft 371 kts 158°
2026-05-08 18:16 40.78542 20.13282 20873 ft 373 kts 158°
2026-05-08 18:17 40.76227 20.14797 21433 ft 374 kts 158°
2026-05-08 18:17 40.73902 20.16318 21999 ft 375 kts 158°
2026-05-08 18:17 40.71572 20.17839 22567 ft 375 kts 158°
2026-05-08 18:17 40.69246 20.19359 23136 ft 375 kts 158°
2026-05-08 18:18 40.66897 20.20896 23677 ft 377 kts 158°
2026-05-08 18:18 40.64547 20.22426 24136 ft 380 kts 158°
2026-05-08 18:18 40.62178 20.23971 24599 ft 383 kts 158°
2026-05-08 18:18 40.59790 20.25527 25066 ft 386 kts 158°
2026-05-08 18:19 40.57389 20.27093 25531 ft 388 kts 158°
2026-05-08 18:19 40.54974 20.28665 25998 ft 390 kts 158°
2026-05-08 18:19 40.52551 20.30243 26466 ft 391 kts 158°
2026-05-08 18:19 40.50099 20.31835 26937 ft 392 kts 158°
2026-05-08 18:20 40.47656 20.33420 27347 ft 395 kts 158°
2026-05-08 18:20 40.45191 20.35020 27716 ft 398 kts 158°
2026-05-08 18:20 40.42705 20.36629 28083 ft 401 kts 158°
2026-05-08 18:20 40.40204 20.38247 28455 ft 404 kts 158°
2026-05-08 18:21 40.37682 20.39879 28816 ft 406 kts 158°
2026-05-08 18:21 40.35156 20.41514 29184 ft 407 kts 158°
2026-05-08 18:21 40.32602 20.43167 29554 ft 409 kts 158°
2026-05-08 18:21 40.30058 20.44809 29923 ft 409 kts 158°
2026-05-08 18:22 40.27512 20.46449 30281 ft 410 kts 158°
2026-05-08 18:22 40.24963 20.48093 30641 ft 410 kts 158°
2026-05-08 18:22 40.22414 20.49735 30998 ft 409 kts 159°
2026-05-08 18:22 40.19864 20.51375 31354 ft 409 kts 159°
2026-05-08 18:23 40.17307 20.53019 31572 ft 412 kts 159°
2026-05-08 18:23 40.14704 20.54685 31688 ft 418 kts 158°
2026-05-08 18:23 40.12079 20.56365 31793 ft 424 kts 159°
2026-05-08 18:23 40.09415 20.58071 31889 ft 430 kts 159°
2026-05-08 18:24 40.03972 20.61498 32090 ft 441 kts 160°
2026-05-08 18:24 40.01171 20.63201 32248 ft 445 kts 160°
2026-05-08 18:24 39.98342 20.64920 32506 ft 447 kts 160°
2026-05-08 18:25 39.95477 20.66666 32770 ft 447 kts 161°
2026-05-08 18:25 39.92661 20.68381 33015 ft 448 kts 161°
2026-05-08 18:25 39.86909 20.71869 33076 ft 461 kts 161°
2026-05-08 18:26 39.81034 20.75435 33066 ft 474 kts 160°
2026-05-08 18:26 39.74996 20.79099 33054 ft 482 kts 160°
2026-05-08 18:27 39.69955 20.82176 33053 ft 484 kts 159°
2026-05-08 18:27 39.63001 20.86905 33058 ft 486 kts 157°
2026-05-08 18:28 39.57031 20.91004 33057 ft 486 kts 158°
2026-05-08 18:28 39.51066 20.95077 33064 ft 487 kts 158°
2026-05-08 18:29 39.45081 20.99153 33057 ft 488 kts 158°
2026-05-08 18:29 39.39081 21.03234 33058 ft 487 kts 158°
2026-05-08 18:30 39.33059 21.07320 33061 ft 490 kts 158°
2026-05-08 18:30 39.26971 21.11441 33065 ft 491 kts 158°
2026-05-08 18:31 39.20937 21.15521 33067 ft 491 kts 158°
2026-05-08 18:31 39.14851 21.19619 33068 ft 492 kts 158°
2026-05-08 18:32 39.08811 21.23689 33069 ft 491 kts 158°
2026-05-08 18:32 39.02760 21.27752 33064 ft 493 kts 159°
2026-05-08 18:33 38.96681 21.31828 33060 ft 495 kts 159°
2026-05-08 18:33 38.90581 21.35910 33059 ft 494 kts 159°
2026-05-08 18:34 38.84423 21.40016 33063 ft 503 kts 158°
2026-05-08 18:34 38.78146 21.44195 33061 ft 513 kts 158°
2026-05-08 18:35 38.71798 21.48423 33065 ft 513 kts 158°
2026-05-08 18:35 38.65431 21.52654 33066 ft 514 kts 158°
2026-05-08 18:36 38.59109 21.56847 33072 ft 512 kts 158°
2026-05-08 18:36 38.52800 21.61021 33075 ft 512 kts 158°
2026-05-08 18:37 38.46492 21.65186 33079 ft 511 kts 159°
2026-05-08 18:37 38.40171 21.69350 33077 ft 510 kts 159°
2026-05-08 18:38 38.33885 21.73483 33082 ft 510 kts 159°
2026-05-08 18:38 38.27602 21.77605 33082 ft 509 kts 159°
2026-05-08 18:39 38.21301 21.81732 33082 ft 508 kts 159°
2026-05-08 18:39 38.15010 21.85844 33097 ft 507 kts 159°
2026-05-08 18:40 38.08754 21.89926 33116 ft 506 kts 159°
2026-05-08 18:40 38.02485 21.94006 33128 ft 506 kts 159°
2026-05-08 18:41 37.96232 21.98070 33134 ft 505 kts 159°
2026-05-08 18:41 37.89984 22.02122 33140 ft 506 kts 159°
2026-05-08 18:42 37.83745 22.06162 33132 ft 505 kts 159°
2026-05-08 18:42 37.77482 22.10207 33130 ft 504 kts 158°
2026-05-08 18:43 37.71259 22.14221 33132 ft 504 kts 158°
2026-05-08 18:43 37.65017 22.18238 33130 ft 503 kts 158°
2026-05-08 18:44 37.58764 22.22255 33124 ft 502 kts 158°
2026-05-08 18:44 37.52553 22.26237 33125 ft 502 kts 158°
2026-05-08 18:45 37.46335 22.30214 33125 ft 503 kts 158°
2026-05-08 18:45 37.40256 22.34545 33121 ft 506 kts 151°
2026-05-08 18:46 37.34548 22.39799 33119 ft 510 kts 145°
2026-05-08 18:46 37.29038 22.45371 33125 ft 510 kts 145°
2026-05-08 18:47 37.23525 22.50926 33111 ft 509 kts 145°
2026-05-08 18:47 37.20762 22.53699 32984 ft 510 kts 145°
2026-05-08 18:47 37.17982 22.56485 32501 ft 507 kts 145°
2026-05-08 18:48 37.15255 22.59214 32023 ft 500 kts 145°
2026-05-08 18:48 37.12562 22.61908 31551 ft 494 kts 146°
2026-05-08 18:48 37.09896 22.64566 31086 ft 488 kts 146°
2026-05-08 18:48 37.07241 22.67215 30607 ft 483 kts 146°
2026-05-08 18:49 37.04624 22.69820 30025 ft 480 kts 147°
2026-05-08 18:49 37.02016 22.72411 29426 ft 479 kts 147°
2026-05-08 18:49 36.99385 22.75017 28819 ft 481 kts 146°
2026-05-08 18:49 36.96771 22.77607 28219 ft 481 kts 146°
2026-05-08 18:50 36.94151 22.80200 27622 ft 483 kts 146°
2026-05-08 18:50 36.91521 22.82804 27022 ft 483 kts 146°
2026-05-08 18:50 36.88855 22.85442 26412 ft 480 kts 146°
2026-05-08 18:50 36.86257 22.88014 25821 ft 477 kts 146°
2026-05-08 18:51 36.83686 22.90559 25418 ft 469 kts 146°
2026-05-08 18:51 36.81123 22.93090 25054 ft 466 kts 146°
2026-05-08 18:51 36.78588 22.95589 24695 ft 465 kts 146°
2026-05-08 18:51 36.76065 22.98079 24341 ft 462 kts 146°
2026-05-08 18:52 36.73553 23.00554 23985 ft 460 kts 146°
2026-05-08 18:52 36.71050 23.03013 23629 ft 459 kts 146°
2026-05-08 18:52 36.68560 23.05458 23279 ft 456 kts 145°
2026-05-08 18:52 36.66086 23.07888 23082 ft 453 kts 146°
2026-05-08 18:53 36.63597 23.10329 23076 ft 455 kts 145°
2026-05-08 18:53 36.61117 23.12761 23072 ft 455 kts 146°
2026-05-08 18:53 36.58641 23.15188 23074 ft 455 kts 145°
2026-05-08 18:53 36.56158 23.17617 23070 ft 454 kts 145°
2026-05-08 18:54 36.53680 23.20041 23072 ft 454 kts 145°
2026-05-08 18:54 36.51203 23.22461 23069 ft 454 kts 145°
2026-05-08 18:54 36.48723 23.24881 23069 ft 454 kts 145°
2026-05-08 18:54 36.46227 23.27315 23068 ft 454 kts 145°
2026-05-08 18:55 36.41294 23.32124 22426 ft 449 kts 145°
2026-05-08 18:55 36.38856 23.34497 22060 ft 446 kts 145°
2026-05-08 18:55 36.36431 23.36854 21695 ft 443 kts 145°
2026-05-08 18:56 36.34021 23.39196 21333 ft 440 kts 145°
2026-05-08 18:56 36.31625 23.41520 20970 ft 437 kts 145°
2026-05-08 18:56 36.29226 23.43846 20599 ft 434 kts 145°
2026-05-08 18:56 36.26780 23.45973 20224 ft 427 kts 154°
2026-05-08 18:57 36.24105 23.47439 19859 ft 417 kts 167°
2026-05-08 18:57 36.22248 23.48027 19618 ft 412 kts 174°
2026-05-08 18:57 36.18502 23.48806 19174 ft 407 kts 176°
2026-05-08 18:57 36.15709 23.49337 18883 ft 406 kts 176°
2026-05-08 18:58 36.12910 23.49876 18589 ft 404 kts 175°
2026-05-08 18:58 36.10142 23.50424 18298 ft 402 kts 175°
2026-05-08 18:58 36.07376 23.50979 18005 ft 401 kts 175°
2026-05-08 18:58 36.04634 23.51535 17715 ft 399 kts 175°
2026-05-08 18:59 36.01901 23.52091 17432 ft 397 kts 175°
2026-05-08 18:59 35.99186 23.52645 17105 ft 395 kts 175°
2026-05-08 18:59 35.96495 23.53195 16745 ft 391 kts 175°
2026-05-08 18:59 35.93811 23.53742 16365 ft 388 kts 175°
2026-05-08 19:00 35.92048 23.54100 16114 ft 386 kts 175°
2026-05-08 19:00 35.88527 23.54816 15606 ft 381 kts 175°
2026-05-08 19:00 35.85929 23.55347 15225 ft 376 kts 175°
2026-05-08 19:00 35.83367 23.55869 14786 ft 373 kts 175°
2026-05-08 19:01 35.80840 23.56383 14263 ft 364 kts 176°
2026-05-08 19:01 35.78385 23.56886 13672 ft 355 kts 176°
2026-05-08 19:01 35.75976 23.57375 13056 ft 345 kts 176°
2026-05-08 19:01 35.73686 23.58150 12423 ft 346 kts 157°
2026-05-08 19:02 35.71781 23.59931 11807 ft 348 kts 133°
2026-05-08 19:02 35.70544 23.62446 11199 ft 346 kts 115°
2026-05-08 19:02 35.69648 23.65154 10585 ft 340 kts 113°
2026-05-08 19:02 35.68787 23.67829 9920 ft 336 kts 114°
2026-05-08 19:03 35.67923 23.70461 9232 ft 332 kts 114°
2026-05-08 19:03 35.67048 23.73069 8540 ft 328 kts 115°
2026-05-08 19:03 35.66177 23.75626 7852 ft 324 kts 115°
2026-05-08 19:03 35.65311 23.78148 7167 ft 320 kts 115°
2026-05-08 19:04 35.64453 23.80640 6483 ft 316 kts 115°
2026-05-08 19:04 35.63605 23.83099 5764 ft 313 kts 115°
2026-05-08 19:04 35.62788 23.85550 5031 ft 311 kts 114°
2026-05-08 19:04 35.62007 23.87977 4415 ft 301 kts 114°
2026-05-08 19:05 35.61261 23.90309 4074 ft 282 kts 114°
2026-05-08 19:05 35.60574 23.92453 4015 ft 260 kts 114°
2026-05-08 19:05 35.59903 23.94446 3863 ft 250 kts 115°
2026-05-08 19:05 35.59238 23.96391 3416 ft 245 kts 115°
2026-05-08 19:06 35.58618 23.98254 3006 ft 228 kts 114°
2026-05-08 19:06 35.58057 23.99972 2743 ft 208 kts 114°
2026-05-08 19:06 35.57541 24.01557 2476 ft 194 kts 114°
2026-05-08 19:06 35.57051 24.03059 2228 ft 184 kts 114°
2026-05-08 19:07 35.56594 24.04461 2057 ft 171 kts 114°
2026-05-08 19:07 35.56160 24.05790 1741 ft 166 kts 114°
2026-05-08 19:07 35.55737 24.07096 1381 ft 165 kts 113°
2026-05-08 19:07 35.55347 24.08370 1151 ft 155 kts 111°
2026-05-08 19:08 35.54973 24.09550 961 ft 144 kts 112°
2026-05-08 19:08 35.54573 24.10706 798 ft 152 kts 115°
2026-05-08 19:08 35.54161 24.11930 726 ft 154 kts 111°
2026-05-08 19:08 35.53769 24.13153 501 ft 158 kts 112°
2026-05-08 19:09 35.53365 24.14376 446 ft 154 kts 112°
2026-05-08 19:09 35.53043 24.15373 459 ft 90 kts 113°
2026-05-08 19:09 35.52869 24.15900 469 ft 43 kts 111°
2026-05-08 19:09 35.52789 24.16149 477 ft 17 kts 109°
2026-05-08 19:10 35.52853 24.16254 473 ft 19 kts 21°
2026-05-08 19:10 35.52948 24.16231 468 ft 17 kts 291°
2026-05-08 19:10 35.52994 24.16089 464 ft 19 kts 292°
2026-05-08 19:10 35.53047 24.15930 460 ft 21 kts 291°
2026-05-08 19:11 35.53088 24.15801 458 ft 10 kts 288°
2026-05-08 19:11 35.53116 24.15716 457 ft 12 kts 291°
2026-05-08 19:11 35.53149 24.15615 455 ft 14 kts 291°
2026-05-08 19:11 35.53189 24.15491 451 ft 17 kts 292°
2026-05-08 19:12 35.53222 24.15390 450 ft 8 kts 291°
2026-05-08 19:12 35.53246 24.15318 449 ft 10 kts 292°
2026-05-08 19:12 35.53275 24.15229 448 ft 12 kts 292°
2026-05-08 19:12 35.53307 24.15129 447 ft 13 kts 291°
2026-05-08 19:13 35.53340 24.15028 445 ft 14 kts 291°
2026-05-08 19:13 35.53376 24.14918 443 ft 12 kts 292°
2026-05-08 19:13 35.53404 24.14831 441 ft 12 kts 292°
2026-05-08 19:13 35.53435 24.14736 438 ft 12 kts 291°
2026-05-08 19:14 35.53468 24.14636 434 ft 14 kts 291°
2026-05-08 19:14 35.53502 24.14530 432 ft 13 kts 291°
2026-05-08 19:14 35.53537 24.14422 430 ft 13 kts 291°
2026-05-08 19:14 35.53561 24.14354 429 ft 5 kts 305°
2026-05-08 19:15 35.53606 24.14346 427 ft 9 kts 21°
2026-05-08 19:15 35.53680 24.14374 423 ft 8 kts 342°
2026-05-08 19:15 35.53704 24.14304 422 ft 17 kts 289°
2026-05-08 19:15 35.53749 24.14163 420 ft 18 kts 292°
2026-05-08 19:16 35.53796 24.14020 418 ft 12 kts 292°
2026-05-08 19:16 35.53811 24.13993 418 ft 1 kts 353°
2026-05-08 19:16 35.53830 24.13998 417 ft 5 kts 14°
2026-05-08 19:16 35.53872 24.14017 415 ft 5 kts 21°
2026-05-08 19:17 35.53881 24.14021 414 ft 0 kts 22°